Location: Demmingen
(48.6757°N, 10.4375°E)
Time: 15:48:50
(UTC+00:00)

CZ-6A DEB - Visible Passes

Search period start: 04 October 2024 00:00
Search period end: 14 October 2024 00:00
Orbit: 612 x 750 km, 98.7° (Epoch: 31 August)

Date Brightness Start Highest point End Pass type
(mag) Time Alt. Az. Time Alt. Az. Time Alt. Az.
04 Oct ? 18:36:04 18° SSE 18:39:15 86° ENE 18:43:41 10° NNW visible
04 Oct ? 20:15:20 10° WSW 20:16:38 11° W 20:17:56 10° WNW visible
05 Oct ? 17:27:06 10° ESE 17:30:19 21° ENE 17:33:36 10° NNE visible
05 Oct ? 19:03:59 21° S 19:06:40 51° W 19:10:59 10° NNW visible
06 Oct ? 17:53:48 13° SE 17:57:13 34° ENE 18:01:14 10° N visible
06 Oct ? 19:31:38 18° SW 19:33:56 28° W 19:37:46 10° NW visible
07 Oct ? 18:21:13 21° SE 18:23:58 60° ENE 18:28:21 10° N visible
07 Oct ? 19:59:02 12° WSW 20:01:03 16° W 20:03:50 10° NW visible
08 Oct ? 17:11:58 10° E 17:14:31 15° ENE 17:17:05 10° NNE visible
08 Oct ? 18:48:22 29° S 18:50:34 76° WSW 18:55:02 10° NNW visible
09 Oct ? 17:37:29 12° ESE 17:40:37 25° ENE 17:44:13 10° N visible
09 Oct ? 19:15:17 28° SSW 19:17:01 42° W 19:21:15 10° NNW visible
10 Oct ? 18:04:09 22° SE 18:06:33 41° ENE 18:10:45 10° N visible
10 Oct ? 19:41:55 21° WSW 19:43:19 24° W 19:46:57 10° NW visible
11 Oct ? 18:30:33 35° SSE 18:32:21 71° ENE 18:36:49 10° N visible
11 Oct ? 20:08:18 13° WSW 20:09:29 14° W 20:11:51 10° WNW visible
12 Oct ? 17:19:02 10° E 17:21:55 17° ENE 17:24:50 10° NNE visible
12 Oct ? 18:56:42 43° SSW 18:57:59 66° WSW 19:02:27 10° NNW visible
13 Oct ? 17:44:53 18° ESE 17:47:03 27° ENE 17:50:49 10° N visible
13 Oct ? 19:22:36 34° SW 19:23:28 38° W 19:27:38 10° NNW visible
